When you browse on this site, cookies collect data to enhance your experience and personalize the content and advertising you see.
Visit our Privacy Policy to learn more. By continuing to use the site, you agree to this use of cookies and data.
  • In Hungary
  • List of Countries
  • For 7 days
  • Water Temperature
  • Satellite Maps
  • Weather Map
  • News
  • Weather Widgets
  • user-avatar
    Login

    Hourly Weather Sinelnikovo

    Today, 25 April, Thursday

    Time Temperature Precipitation Wind Pressure Humidity
    00:00 +14°C° 0 mm 2 mps 754 mmHg 49%
    01:00 +14°C° 0 mm 2 mps 754 mmHg 50%
    02:00 +13°C° 0 mm 2 mps 753 mmHg 53%
    03:00 +13°C° 0 mm 2 mps 753 mmHg 55%
    04:00 +13°C° 0 mm 2 mps 754 mmHg 57%
    05:00 +12°C° 0 mm 2 mps 754 mmHg 60%
    06:00 +14°C° 0 mm 2 mps 754 mmHg 56%
    07:00 +16°C° 0 mm 2 mps 754 mmHg 52%
    08:00 +18°C° 0 mm 2 mps 754 mmHg 48%
    09:00 +20°C° 0 mm 2 mps 754 mmHg 44%
    10:00 +21°C° 0 mm 2 mps 754 mmHg 40%
    11:00 +24°C° 0 mm 1 mps 753 mmHg 35%
    12:00 +24°C° 0 mm 1 mps 753 mmHg 34%
    13:00 +25°C° 0 mm 1 mps 753 mmHg 32%
    14:00 +26°C° 0 mm 1 mps 752 mmHg 29%
    15:00 +25°C° 0 mm 1 mps 752 mmHg 32%
    16:00 +25°C° 0 mm 1 mps 752 mmHg 35%
    17:00 +24°C° 0 mm 1 mps 752 mmHg 37%
    18:00 +23°C° 0 mm 1 mps 752 mmHg 39%
    19:00 +21°C° 0 mm 2 mps 751 mmHg 41%
    20:00 +20°C° 0 mm 2 mps 751 mmHg 42%
    21:00 +19°C° 0 mm 2 mps 751 mmHg 43%
    22:00 +19°C° 0 mm 2 mps 751 mmHg 44%
    23:00 +18°C° 0 mm 3 mps 751 mmHg 45%

    Tomorrow, 26 April, Friday

    Time Temperature Precipitation Wind Pressure Humidity
    00:00 +18°C° 0 mm 3 mps 751 mmHg 48%
    01:00 +17°C° 0 mm 2 mps 751 mmHg 50%
    02:00 +17°C° 0 mm 2 mps 751 mmHg 53%
    03:00 +16°C° 0 mm 2 mps 751 mmHg 55%
    04:00 +16°C° 0 mm 2 mps 751 mmHg 58%
    05:00 +15°C° 0 mm 2 mps 751 mmHg 61%
    06:00 +16°C° 0 mm 2 mps 751 mmHg 58%
    07:00 +18°C° 0 mm 2 mps 751 mmHg 55%
    08:00 +19°C° 0 mm 2 mps 751 mmHg 52%
    09:00 +20°C° 0 mm 2 mps 751 mmHg 49%
    10:00 +21°C° 0 mm 2 mps 751 mmHg 46%
    11:00 +23°C° 0 mm 2 mps 750 mmHg 43%
    12:00 +24°C° 0 mm 2 mps 750 mmHg 39%
    13:00 +25°C° 0 mm 1 mps 750 mmHg 36%
    14:00 +25°C° 0 mm 1 mps 750 mmHg 32%
    15:00 +24°C° 0 mm 1 mps 749 mmHg 37%
    16:00 +21°C° 0 mm 0 mps 749 mmHg 41%
    17:00 +20°C° 0 mm 0 mps 749 mmHg 46%
    18:00 +21°C° 0.1 mm 1 mps 749 mmHg 47%
    19:00 +21°C° 0.1 mm 1 mps 749 mmHg 48%
    20:00 +20°C° 0.1 mm 1 mps 749 mmHg 49%
    21:00 +19°C° 0.1 mm 1 mps 749 mmHg 53%
    22:00 +18°C° 0.1 mm 1 mps 749 mmHg 57%
    23:00 +15°C° 0.1 mm 1 mps 749 mmHg 60%

    Day after tomorrow, 27 April, Saturday

    Time Temperature Precipitation Wind Pressure Humidity
    00:00 +15°C° 0.1 mm 1 mps 749 mmHg 61%
    01:00 +15°C° 0.1 mm 1 mps 749 mmHg 62%
    02:00 +14°C° 0.1 mm 1 mps 749 mmHg 63%
    03:00 +14°C° 0 mm 1 mps 748 mmHg 62%
    04:00 +13°C° 0 mm 2 mps 748 mmHg 62%
    05:00 +13°C° 0 mm 2 mps 748 mmHg 61%
    06:00 +15°C° 0 mm 1 mps 748 mmHg 56%
    07:00 +16°C° 0 mm 1 mps 748 mmHg 51%
    08:00 +19°C° 0 mm 1 mps 748 mmHg 46%
    09:00 +20°C° 0 mm 1 mps 748 mmHg 43%
    10:00 +21°C° 0 mm 2 mps 748 mmHg 40%
    11:00 +23°C° 0 mm 2 mps 748 mmHg 37%
    12:00 +24°C° 0 mm 2 mps 747 mmHg 36%
    13:00 +24°C° 0 mm 2 mps 747 mmHg 35%
    14:00 +24°C° 0 mm 3 mps 746 mmHg 34%
    15:00 +24°C° 0 mm 3 mps 746 mmHg 36%
    16:00 +24°C° 0 mm 3 mps 746 mmHg 38%
    17:00 +22°C° 0 mm 3 mps 745 mmHg 39%
    18:00 +20°C° 0 mm 2 mps 745 mmHg 42%
    19:00 +19°C° 0 mm 2 mps 745 mmHg 45%
    20:00 +17°C° 0 mm 2 mps 745 mmHg 47%
    21:00 +17°C° 0 mm 2 mps 745 mmHg 47%
    22:00 +16°C° 0 mm 2 mps 745 mmHg 47%
    23:00 +16°C° 0 mm 2 mps 745 mmHg 48%

    28 April, Sunday

    Time Temperature Precipitation Wind Pressure Humidity
    00:00 +15°C° 0 mm 2 mps 745 mmHg 51%
    01:00 +15°C° 0 mm 2 mps 744 mmHg 55%
    02:00 +14°C° 0 mm 2 mps 744 mmHg 59%
    03:00 +14°C° 0 mm 2 mps 744 mmHg 62%
    04:00 +13°C° 0 mm 2 mps 744 mmHg 65%
    05:00 +13°C° 0 mm 2 mps 744 mmHg 68%
    06:00 +14°C° 0 mm 3 mps 744 mmHg 61%
    07:00 +16°C° 0 mm 3 mps 744 mmHg 55%
    08:00 +18°C° 0 mm 3 mps 744 mmHg 48%
    09:00 +20°C° 0 mm 4 mps 744 mmHg 46%
    10:00 +21°C° 0 mm 4 mps 744 mmHg 43%
    11:00 +22°C° 0 mm 5 mps 744 mmHg 41%
    12:00 +23°C° 0 mm 5 mps 743 mmHg 40%
    13:00 +23°C° 0 mm 5 mps 743 mmHg 39%
    14:00 +23°C° 0 mm 5 mps 743 mmHg 38%
    15:00 +23°C° 0 mm 4 mps 742 mmHg 40%
    16:00 +23°C° 0 mm 4 mps 742 mmHg 41%
    17:00 +22°C° 0 mm 3 mps 742 mmHg 43%
    18:00 +21°C° 0 mm 3 mps 742 mmHg 47%
    19:00 +19°C° 0 mm 3 mps 742 mmHg 50%
    20:00 +18°C° 0 mm 2 mps 742 mmHg 54%
    21:00 +17°C° 0 mm 3 mps 742 mmHg 57%
    22:00 +16°C° 0 mm 3 mps 742 mmHg 59%
    23:00 +15°C° 0 mm 4 mps 742 mmHg 61%

    29 April, Monday

    Time Temperature Precipitation Wind Pressure Humidity
    00:00 +14°C° 0 mm 3 mps 742 mmHg 64%
    01:00 +14°C° 0 mm 3 mps 742 mmHg 67%
    02:00 +14°C° 0 mm 2 mps 742 mmHg 70%
    03:00 +14°C° 0 mm 2 mps 742 mmHg 71%
    04:00 +14°C° 0 mm 2 mps 742 mmHg 72%
    05:00 +13°C° 0 mm 2 mps 742 mmHg 72%
    06:00 +15°C° 0 mm 2 mps 742 mmHg 66%
    07:00 +17°C° 0 mm 2 mps 742 mmHg 61%
    08:00 +18°C° 0 mm 2 mps 743 mmHg 55%
    09:00 +19°C° 0 mm 2 mps 743 mmHg 53%
    10:00 +20°C° 0 mm 2 mps 743 mmHg 52%
    11:00 +21°C° 0 mm 2 mps 743 mmHg 50%
    12:00 +21°C° 0.1 mm 3 mps 743 mmHg 53%
    13:00 +20°C° 0.1 mm 5 mps 743 mmHg 57%
    14:00 +20°C° 0.1 mm 6 mps 743 mmHg 60%
    15:00 +19°C° 0.4 mm 6 mps 742 mmHg 63%
    16:00 +17°C° 0.4 mm 6 mps 742 mmHg 67%
    17:00 +15°C° 0.4 mm 7 mps 742 mmHg 71%
    18:00 +14°C° 0.9 mm 6 mps 742 mmHg 75%
    19:00 +13°C° 0.9 mm 6 mps 742 mmHg 79%
    20:00 +10°C° 0.9 mm 6 mps 742 mmHg 83%
    21:00 +10°C° 1.5 mm 6 mps 742 mmHg 85%
    22:00 +10°C° 1.5 mm 6 mps 742 mmHg 87%
    23:00 +10°C° 1.5 mm 6 mps 742 mmHg 89%

    30 April, Tuesday

    Time Temperature Precipitation Wind Pressure Humidity
    00:00 +10°C° 1.6 mm 6 mps 742 mmHg 89%
    01:00 +10°C° 1.6 mm 5 mps 742 mmHg 90%
    02:00 +12°C° 1.6 mm 5 mps 741 mmHg 91%
    03:00 +12°C° 0.7 mm 5 mps 741 mmHg 90%
    04:00 +10°C° 0.7 mm 5 mps 741 mmHg 90%
    05:00 +10°C° 0.7 mm 5 mps 741 mmHg 89%
    06:00 +12°C° 0 mm 5 mps 741 mmHg 84%
    07:00 +13°C° 0 mm 5 mps 741 mmHg 79%
    08:00 +14°C° 0 mm 5 mps 741 mmHg 73%
    09:00 +15°C° 0.7 mm 5 mps 740 mmHg 70%
    10:00 +16°C° 0.7 mm 6 mps 740 mmHg 66%
    11:00 +17°C° 0.7 mm 6 mps 740 mmHg 63%
    12:00 +19°C° 1.3 mm 6 mps 739 mmHg 61%
    13:00 +19°C° 1.3 mm 6 mps 739 mmHg 58%
    14:00 +19°C° 1.3 mm 6 mps 739 mmHg 56%
    15:00 +19°C° 1.2 mm 6 mps 738 mmHg 58%
    16:00 +19°C° 1.2 mm 5 mps 738 mmHg 60%
    17:00 +17°C° 1.2 mm 5 mps 738 mmHg 62%
    18:00 +16°C° 0.2 mm 5 mps 738 mmHg 66%
    19:00 +15°C° 0.2 mm 5 mps 737 mmHg 69%
    20:00 +14°C° 0.2 mm 5 mps 737 mmHg 72%
    21:00 +13°C° 0 mm 5 mps 737 mmHg 75%
    22:00 +12°C° 0 mm 5 mps 737 mmHg 78%
    23:00 +12°C° 0 mm 4 mps 737 mmHg 81%
    Show more